Location: Bishopstone
(51.0167°N, 1.9000°W)
Time: 00:05:39
(UTC+00:00)

Cosmos 1743 - Pass Details

Date: 16 September 2019
Orbit: 511 x 527 km, 82.6° (Epoch: 22 October)

Event Time Altitude Azimuth Distance (km) Brightness Sun altitude
Rises 19:11:47 0° 204° (SSW) 2,631 6.4 -8.8°
Reaches altitude 10° 19:13:58 10° 211° (SSW) 1,751 5.6 -9.1°
Maximum altitude 19:17:40 45° 285° (WNW) 721 4.0 -9.7°
Drops below altitude 10° 19:21:25 10° 359° (N) 1,775 5.6 -10.3°
Sets 19:23:39 0° 6° (N) 2,672 6.5 -10.6°
